Voltar ao catálogo

COSMOS 1805

AtivoMilitarPO
NORAD 17191·PAYLOAD·🇷🇺 Russia

Lançado Dec 10, 1986 de Plesetsk Cosmodrome

Loading…

Próximas Passagens (próximas 24 horas)

TLE

AtualizadoSource: Space-Track

Época: Sep 14, 2026, 13:16 UTC

1 17191U 86097A   26257.55309049  .00019663  00000-0  29024-3 0  9991
2 17191  82.4524 257.2395 0003709 133.0451 227.1114 15.55208673176414

Acompanhe COSMOS 1805 em tempo real com AllMySat

Download on the App Store